Regional Weather Roundup
Issued by NWS Charleston, SC

Current Version | Previous Version | Graphics & Text | Print | Product List | Glossary On
Versions: 1 2 3 4 5 6 7 8 9 10 11 12 13 14 15 16 17 18 19 20 21 22 23 24 25 26 27 28 29 30 31 32 33 34 35 36 37 38 39 40 41 42 43 44 45 46 47 48 49 50
000 ASUS42 KCHS 012210 RWRCHS REGIONAL WEATHER ROUNDUP NATIONAL WEATHER SERVICE CHARLESTON SC 600 PM EDT FRI AUG 01 2014 NOTE: "FAIR" INDICATES FEW OR NO CLOUDS BELOW 12,000 FEET WITH NO SIGNIFICANT WEATHER AND/OR OBSTRUCTIONS TO VISIBILITY. NOT ALL STATIONS ARE QUALITY CONTROLLED BY THE NATIONAL WEATHER SERVICE. USE DATA WITH CAUTION...ESPECIALLY DEWPOINT OBSERVATIONS. SCZ027-030-031-034>040-042>050-012300- ...SOUTH CAROLINA... CITY SKY/WX TMP DP RH WIND PRES REMARKS N CHARLESTON CLOUDY 84 73 69 SE7 29.98F HX 90 WATERFRONT PRK N/A 81 N/A N/A SE9 N/A FORT JOHNSON NOT AVBL MOUNT PLEASANT FAIR 81 75 83 CALM 29.98F JOHNS ISLAND PTCLDY 81 66 61 SE3 29.99R PINOPOLIS N/A 86 75 70 CALM 29.91F HX 95 MONCKS CORNER NOT AVBL SUMMERVILLE LGT RAIN 81 75 83 CALM 29.99S BEAUFORT MCAS CLOUDY 81 73 76 CALM 29.99R BEAUFORT ARPT FAIR 81 73 78 CALM 29.98R HILTON HEAD IS PTSUNNY 82 73 74 E3 29.99R GEORGETOWN NOT AVBL WALTERBORO NOT AVBL ORANGEBURG CLOUDY 83 71 67 N9 30.00R BARNWELL FAIR 86 72 62 NW7 30.00S HX 92 AIKEN CLOUDY 72 72 100 N9 30.07S MANNING CLOUDY 79 73 83 N7 30.00R KINGSTREE NOT AVBL COLUMBIA PTSUNNY 78 69 73 N7 30.02S SUMTER PTSUNNY 79 74 83 NW8 29.99S FLORENCE CLOUDY 79 72 79 SE5 30.00S MYRTLE BEACH PTSUNNY 81 72 74 S12 30.00S N MYRTLE BEACH CLOUDY 80 72 76 S10 30.00F $$ GAZ063-065-086>088-099>101-113>116-118-119-134-136>141-150-012300- ...GEORGIA... CITY SKY/WX TMP DP RH WIND PRES REMARKS SAVANNAH ARPT CLOUDY 83 74 74 E9 29.98R HUNTER AAF CLOUDY 82 75 81 E3 29.96R FORT STEWART CLOUDY 80 77 88 NE6 29.97R STATESBORO NOT AVBL SYLVANIA TSTM 76 73 90 S7G20 30.02R CLAXTON MOCLDY 79 77 94 NE3 30.00R FOG THOMSON CLOUDY 74 72 93 NE8 30.09S AUGUSTA-BUSH MOSUNNY 79 69 71 N13 30.01R AUGUSTA-DANIEL MOSUNNY 76 68 76 N12 30.04R SWAINSBORO FAIR 88 70 55 E6 30.00R HX 92 VIDALIA N/A 81 73 78 E7 30.00R ALMA RAIN 76 74 93 VRB3 29.98S FOG WAYCROSS MOSUNNY 86 75 70 NE8G16 29.96R HX 94 JESUP FAIR 82 77 83 NE6 29.97R HX 91 BRUNSWICK PTSUNNY 86 73 66 E10 29.95S HX 93 SAINT SIMONS MOSUNNY 85 76 74 E12 29.95R HX 94 $$ SCZ027-028-034-036>038-045-046-048>050-GAZ119-141-012300- ...LAKE AND SUPPLEMENTAL COASTAL OBSERVATIONS... STATION/POSITION TIME TEMP WIND PRES WAVE SWELL AIR SEA DIR/SP/G HT/PER HT/PER/DIR (UTC) (F) (DEG/KT/KT) (MB) (FT/S) (FT/S/D) UPR LAKE MARION NOT AVBL WINYAH BAY 2100 79 180/ 7 1016.0S LAKE MURRAY 2100 71 330/ 4/ 11 1016.6F ACE BASIN NERRS 2100 80 130/ 4 1015.0F FORT PULASKI 2200 82 100/ 8/ 11 1015.2R SAPELO ISLAND 2100 86 100/ 11 1015.0S $$ ANZ835-935-AMZ111-154-330-350-352-354-374-450-454-472-012300- ...C-MAN AND BUOY OBSERVATIONS... STATION/POSITION TIME TEMP WIND PRES WAVE SWELL AIR SEA DIR/SP/G HT/PER HT/PER/DIR (UTC) (F) (DEG/KT/KT) (MB) (FT/S) (FT/S/D) FOLLY BEACH CMAN 2100 78 120/ 8/ 9 1015.8F BUOY 41004 2200 80 82 160/ 16/ 17 1014.3F 5/ 6 2/12 BUOY 41008 2200 83 85 110/ 16/ 17 1014.1F 4/ 6 2/100/12 5E ST. MARYS GA 2200 87 N/A 2/ 5 FRYING PAN BUOY NOT AVBL BUOY 41025 2200 VRB 4/ 4 1019.8R 3/ 6 3/100/ 6 CAPE LOOKOUT NC 2100 76 130/ 8/ 9 1018.3F BUOY 41002 2118 82 81 160/ 12/ 12 1019.4R 4/ 8 3/120/ 8 BUOY 41010 2200 83 85 110/ 10/ 10 1015.5S 2/ 7 2/ 90/ 7 BUOY 41012 NOT AVBL ST AUGUSTINE FL 2200 83 150/ 10/ 11 1014.6F CAPERS NEARSHORE 2100 80 160/ 6/ 6 N/A FRIPP NEARSHORE NOT AVBL $$

USA.gov is the U.S. government's official web portal to all federal, state and local government web resources and services.